Regional Weather Roundup
Issued by NWS Albany, NY

Home | Current Version | Previous Version | Text Only | Print | Product List | Glossary On
Versions: 1 2 3 4 5 6 7 8 9 10 11 12 13 14 15 16 17 18 19 20 21 22 23 24 25 26 27
000
ASUS41 KALY 182010
RWRALY

NEW YORK STATE HOURLY WEATHER ROUNDUP
NATIONAL WEATHER SERVICE ALBANY NY
400 PM EDT FRI APR 18 2014

NOTE: "FAIR" INDICATES FEW OR NO CLOUDS BELOW 12,000 FEET WITH NO
SIGNIFICANT WEATHER AND/OR NO OBSTRUCTIONS TO VISIBILITY.

NYZ032-033-038>043-046>054-057>066-NYZ062>081-182100-
EAST


CITY           SKY/WX    TMP DP  RH WIND       PRES   REMARKS
ALBANY         CLOUDY    50  25  37 S10       30.33F
GLENS FALLS    CLOUDY    53  23  31 SW10      30.31F
POUGHKEEPSIE   CLOUDY    49  27  42 W3        30.36F
NEWBURGH       MOSUNNY   48  28  46 CALM      30.37F
MONTGOMERY     CLOUDY    49  25  39 S6        30.34F
WHITE PLAINS   CLOUDY    43  26  51 E9        30.35F
ISLIP          CLOUDY    47  33  58 SE8       30.36F
NEW YORK CITY  CLOUDY    44  29  55 NE9       30.38F
CENTRAL PARK   CLOUDY    49  30  48 NE6       30.39F
$$

NYZ005>009-017-018-044>046-055-056-182100-
CENTRAL


CITY           SKY/WX    TMP DP  RH WIND       PRES   REMARKS
FULTON         MOSUNNY   59  33  37 SW9       30.21F
SYRACUSE       PTSUNNY   60  32  34 S9        30.21F
ROME           PTSUNNY   56  30  37 SE12      30.25F
ELMIRA         MOSUNNY   61  30  31 SW10G18   30.21F
BINGHAMTON     PTSUNNY   51  30  44 S12       30.25F
MONTICELLO     CLOUDY    45  25  45 S8        30.33F
$$

NYZ026>034-041>043-182100-
NORTH


CITY           SKY/WX    TMP DP  RH WIND       PRES   REMARKS
WATERTOWN      MOSUNNY   59  31  34 SW13G18   30.21F
FORT DRUM      NOT AVBL
MASSENA        CLOUDY    54  29  38 E6        30.22F
SARANAC LAKE   CLOUDY    50  21  32 S13       30.19F
PLATTSBURGH    CLOUDY    50  15  24 S15G26    30.24F
$$

NYZ001>004-010>016-019>021-182100-
WEST


CITY           SKY/WX    TMP DP  RH WIND       PRES   REMARKS
NIAGARA FALLS  CLOUDY    57  37  47 N7        30.21F
BUFFALO        PTSUNNY   59  34  39 SW10      30.21F
DUNKIRK        SUNNY     56  32  40 W12G17    30.24F
JAMESTOWN      PTSUNNY   54  36  50 W17       30.21F
WELLSVILLE     MOSUNNY   62  26  25 W15G24    30.20F
ROCHESTER      MOSUNNY   60  36  40 N14       30.20S
PENN YAN       MOSUNNY   62  33  33 S10       30.19F
$$

             KEY
       WCI = WIND CHILL INDEX
       VSB = VISIBILITY
       HX  = HEAT INDEX
$$



USA.gov is the U.S. government's official web portal to all federal, state and local government web resources and services.